Flag for Germany Weather past 2 weeks in Bad Nauheim, Hesse, Germany

Now
34 °F

Drizzle. Low clouds.


Feels Like: 29 °F
Forecast: 34 / 38 °F
Wind: 5 mph from Southwest

Location: Giessen

Current Time: Jan 27, 2015 at 9:36:50 AM

Latest Report: Jan 27, 2015 at 9:00 AM


Visibility: 5 mi

Pressure: 30.16 "Hg

Humidity: 99%

Dew point: 33 °F

Location of Bad NauheimLocation

Historic Weather in Bad Nauheim — Graph

°F

Bad Nauheim temperature yesterday

Maximum temperature yesterday: 36 °F (at 11:00 PM)
Minimum temperature yesterday: 33 °F (at 5:00 AM)
Average temperature yesterday: 34 °F

Past Weeks' High & Low Weather Summary

 TemperatureHumidityPressure
High53 °F (Jan 13, 3:00 PM)100% (Jan 18, 2:00 AM)30.43 "Hg (Jan 18, 2:00 AM)
Low22 °F (Jan 25, 3:00 AM)53% (Jan 13, 3:00 PM)29.59 "Hg (Jan 15, 7:00 PM)
Average35 °F90%30.01 "Hg
* Reported Jan 12 8:00 AM — Jan 27 8:00 AM, Bad Nauheim, Weather by CustomWeather, © 2014

Note: Actual official high and low records may vary slightly from our data, if they occured in-between our weather recording intervals... More about our weather records

Advertising

Bad Nauheim weather history for previous 24 hours

 ConditionsComfort  
Time TempWeatherWind HumidityBarometerVisibility
8:00 AM
Jan 27
33 °FLow clouds.5 mph98%30.15 "Hg9 mi
7:00 AM32 °FPassing clouds.5 mph98%30.15 "Hg12 mi
6:00 AM34 °FClear.3 mph95%30.14 "Hg25 mi
5:00 AM34 °FClear.5 mph97%30.13 "Hg28 mi
4:00 AM34 °FClear.3 mph96%30.12 "Hg25 mi
3:00 AM35 °FClear.5 mph94%30.11 "Hg25 mi
2:00 AM35 °FPassing clouds.2 mph94%30.10 "Hg25 mi
1:00 AM37 °FPassing clouds.2 mph91%30.09 "Hg28 mi
12:00 AM36 °FOvercast.2 mph95%30.09 "Hg19 mi
11:00 PM
Jan 26
36 °FOvercast.2 mph95%30.07 "Hg25 mi
10:00 PM36 °FOvercast.5 mph100%30.07 "Hg6 mi
9:00 PM35 °FLow clouds.3 mph100%30.07 "Hg4 mi
8:00 PM35 °FDrizzle. Low clouds.2 mph100%30.07 "Hg2 mi
7:00 PM34 °FDrizzle. Low clouds.3 mph100%30.06 "Hg3 mi
6:00 PM34 °FLow clouds.3 mph100%30.08 "Hg4 mi
5:00 PM34 °FLow clouds.3 mph100%30.09 "Hg6 mi
4:00 PM33 °FLow clouds.5 mph100%30.11 "Hg2 mi
3:00 PM33 °FSnow. Low clouds.3 mph100%30.13 "Hg2 mi
2:00 PM33 °FSnow. Low clouds.5 mph100%30.16 "Hg2 mi
1:00 PM34 °FLight rain. Low clouds.5 mph100%30.18 "Hg2 mi
12:00 PM34 °FLight snow. Low clouds.5 mph100%30.21 "Hg2 mi
11:00 AM34 °FLight rain. Low clouds.3 mph100%30.24 "Hg2 mi
10:00 AM34 °FFog.5 mph99%30.25 "Hg2 mi
9:00 AM34 °FFog.2 mph100%30.27 "Hg3 mi
Weather by CustomWeather, © 2014

See weather overviewHow to use our weather pages